| time (UTC) | temp F | wind direction | speed MPH | gust MPH | rain 1hr in | rain 24hr in | rain mn in | humidity % | barometer mb |
| 20260902181420 | 72 | 277 | 3.0 | 3.0 | 0.00 | 0.03 | 0.02 | 40 | 1012.4 |
| 20260902180421 | 72 | 245 | 1.0 | 2.0 | 0.00 | 0.03 | 0.02 | 42 | 1012.4 |
| 20260902175421 | 71 | 260 | 2.0 | 2.0 | 0.00 | 0.03 | 0.02 | 42 | 1012.4 |
| 20260902174421 | 71 | 281 | 2.0 | 2.0 | 0.00 | 0.03 | 0.02 | 42 | 1012.6 |
| 20260902173421 | 71 | 251 | 2.0 | 3.0 | 0.00 | 0.03 | 0.02 | 44 | 1012.5 |
| 20260902172421 | 70 | 259 | 2.0 | 3.0 | 0.00 | 0.03 | 0.02 | 44 | 1012.4 |
| 20260902171421 | 69 | 269 | 3.0 | 4.0 | 0.00 | 0.03 | 0.02 | 45 | 1012.4 |
| 20260902170421 | 68 | 0.0 | 0.0 | 0.00 | 0.03 | 0.02 | 45 | 1012.5 | |
| 20260902165442 | 68 | 272 | 2.0 | 4.0 | 0.00 | 0.03 | 0.02 | 45 | 1012.4 |
| 20260902164442 | 68 | 279 | 2.0 | 3.0 | 0.00 | 0.03 | 0.02 | 45 | 1012.3 |
| 20260902163422 | 67 | 0 | 0.0 | 0.0 | 0.00 | 0.03 | 0.02 | 44 | 1012.3 |
| 20260902162422 | 67 | 261 | 4.0 | 5.0 | 0.00 | 0.03 | 0.02 | 44 | 1012.2 |
| 20260902161423 | 66 | 244 | 2.0 | 3.0 | 0.00 | 0.03 | 0.02 | 45 | 1012.2 |
| 20260902160423 | 66 | 242 | 1.0 | 2.0 | 0.00 | 0.03 | 0.02 | 47 | 1012.1 |
| 20260902155422 | 65 | 261 | 2.0 | 3.0 | 0.00 | 0.03 | 0.02 | 50 | 1012.2 |
| 20260902154423 | 65 | 278 | 2.0 | 4.0 | 0.00 | 0.03 | 0.02 | 54 | 1012.2 |
| 20260902153504 | 64 | 264 | 2.0 | 2.0 | 0.00 | 0.03 | 0.02 | 59 | 1012.0 |
| 20260902152424 | 64 | 269 | 2.0 | 2.0 | 0.00 | 0.03 | 0.02 | 64 | 1012.0 |
| 20260902151423 | 63 | 274 | 1.0 | 1.0 | 0.00 | 0.03 | 0.02 | 63 | 1011.7 |
| 20260902150424 | 63 | 296 | 1.0 | 2.0 | 0.00 | 0.03 | 0.02 | 65 | 1011.3 |
| 20260902145424 | 62 | 0.0 | 0.0 | 0.00 | 0.03 | 0.02 | 73 | 1010.9 | |
| 20260902144424 | 62 | 0.0 | 0.0 | 0.00 | 0.03 | 0.02 | 70 | 1011.1 | |
| 20260902143425 | 62 | 0.0 | 0.0 | 0.00 | 0.03 | 0.02 | 70 | 1011.1 | |
| 20260902142424 | 62 | 309 | 0.0 | 0.0 | 0.00 | 0.03 | 0.02 | 72 | 1011.4 |
| 20260902141424 | 61 | 0.0 | 0.0 | 0.00 | 0.03 | 0.02 | 77 | 1011.4 | |
| 20260902140425 | 61 | 0.0 | 0.0 | 0.00 | 0.03 | 0.02 | 78 | 1011.4 | |
| 20260902135425 | 61 | 0.0 | 0.0 | 0.00 | 0.03 | 0.02 | 77 | 1011.1 | |
| 20260902134426 | 61 | 0.0 | 0.0 | 0.00 | 0.03 | 0.02 | 78 | 1010.7 | |
| 20260902133425 | 61 | 0.0 | 0.0 | 0.02 | 0.03 | 0.02 | 78 | 1010.4 | |
| 20260902132425 | 61 | 0.0 | 0.0 | 0.02 | 0.03 | 0.02 | 75 | 1010.6 | |
| 20260902131425 | 61 | 0.0 | 0.0 | 0.02 | 0.03 | 0.02 | 77 | 1010.4 | |
| 20260902130445 | 62 | 0.0 | 0.0 | 0.02 | 0.03 | 0.02 | 74 | 1010.4 | |
| 20260902125426 | 62 | 0.0 | 0.0 | 0.02 | 0.03 | 0.02 | 73 | 1010.1 | |
| 20260902124426 | 62 | 0.0 | 0.0 | 0.01 | 0.03 | 0.01 | 72 | 1010.1 | |
| 20260902123426 | 62 | 0.0 | 0.0 | 0.00 | 0.01 | 0.00 | 60 | 1009.8 | |
| 20260902122417 | 62 | 0.0 | 0.0 | 0.00 | 0.01 | 0.00 | 63 | 1009.7 | |
| 20260902121418 | 62 | 0.0 | 0.0 | 0.00 | 0.01 | 0.00 | 62 | 1009.6 | |
| 20260902120417 | 62 | 0.0 | 0.0 | 0.00 | 0.01 | 0.00 | 72 | 1009.6 | |
| 20260902115418 | 61 | 0.0 | 0.0 | 0.00 | 0.01 | 0.00 | 73 | 1009.7 | |
| 20260902114418 | 61 | 0.0 | 0.0 | 0.00 | 0.01 | 0.00 | 83 | 1009.9 | |
| 20260902113418 | 61 | 0.0 | 0.0 | 0.00 | 0.01 | 0.00 | 83 | 1009.9 | |
| 20260902112419 | 61 | 0.0 | 0.0 | 0.00 | 0.01 | 0.00 | 85 | 1009.7 | |
| 20260902111419 | 61 | 0.0 | 0.0 | 0.00 | 0.01 | 0.00 | 84 | 1009.5 | |
| 20260902110419 | 61 | 0.0 | 0.0 | 0.00 | 0.01 | 0.00 | 83 | 1009.2 | |
| 20260902105419 | 61 | 0.0 | 0.0 | 0.00 | 0.01 | 0.00 | 83 | 1009.1 | |
| 20260902104420 | 61 | 0.0 | 0.0 | 0.00 | 0.01 | 0.00 | 81 | 1009.1 | |
| 20260902103419 | 61 | 0.0 | 0.0 | 0.00 | 0.01 | 0.00 | 81 | 1009.1 | |
| 20260902102420 | 61 | 0.0 | 0.0 | 0.00 | 0.01 | 0.00 | 83 | 1009.0 | |
| 20260902101420 | 61 | 0.0 | 0.0 | 0.00 | 0.01 | 0.00 | 81 | 1009.0 | |
| 20260902100420 | 61 | 114 | 0.0 | 1.0 | 0.00 | 0.01 | 0.00 | 83 | 1008.8 |
| 20260902095420 | 61 | 0.0 | 0.0 | 0.00 | 0.01 | 0.00 | 83 | 1008.7 | |
| 20260902094420 | 61 | 0.0 | 0.0 | 0.00 | 0.01 | 0.00 | 81 | 1008.7 | |
| 20260902093421 | 61 | 0.0 | 0.0 | 0.00 | 0.01 | 0.00 | 81 | 1008.7 | |
| 20260902092421 | 60 | 0.0 | 0.0 | 0.00 | 0.01 | 0.00 | 81 | 1008.6 | |
| 20260902091441 | 61 | 0.0 | 0.0 | 0.00 | 0.01 | 0.00 | 80 | 1008.6 | |
| 20260902090421 | 61 | 0.0 | 0.0 | 0.00 | 0.01 | 0.00 | 80 | 1008.4 | |
| 20260902085422 | 62 | 0.0 | 0.0 | 0.00 | 0.01 | 0.00 | 78 | 1008.3 | |
| 20260902084422 | 61 | 0.0 | 0.0 | 0.00 | 0.01 | 0.00 | 78 | 1008.3 | |
| 20260902083422 | 62 | 0.0 | 0.0 | 0.00 | 0.01 | 0.00 | 78 | 1008.2 | |
| 20260902082422 | 62 | 0.0 | 0.0 | 0.00 | 0.01 | 0.00 | 77 | 1008.1 | |
| 20260902081417 | 62 | 0.0 | 0.0 | 0.00 | 0.01 | 0.00 | 77 | 1008.1 | |
| 20260902080417 | 62 | 0.0 | 0.0 | 0.00 | 0.01 | 0.00 | 77 | 1007.9 | |
| 20260902075437 | 63 | 0.0 | 0.0 | 0.00 | 0.01 | 0.00 | 77 | 1007.8 | |
| 20260902074418 | 63 | 0.0 | 0.0 | 0.00 | 0.01 | 0.00 | 75 | 1007.8 | |
| 20260902073417 | 63 | 0.0 | 0.0 | 0.00 | 0.01 | 0.00 | 75 | 1007.5 | |
| 20260902072416 | 64 | 0.0 | 0.0 | 0.00 | 0.01 | 0.00 | 74 | 1007.4 | |
| 20260902071416 | 64 | 0 | 0.0 | 0.0 | 0.00 | 0.01 | 0.00 | 73 | 1007.4 |
| 20260902070417 | 65 | 0.0 | 0.0 | 0.00 | 0.01 | 0.00 | 72 | 1007.4 | |
| 20260902065417 | 66 | 99 | 1.0 | 1.0 | 0.00 | 0.01 | 0.00 | 73 | 1007.4 |
| 20260902064438 | 66 | 0.0 | 0.0 | 0.00 | 0.01 | 0.00 | 72 | 1007.4 | |
| 20260902063418 | 66 | 0.0 | 0.0 | 0.00 | 0.01 | 0.00 | 73 | 1007.3 | |
| 20260902062419 | 66 | 0.0 | 0.0 | 0.00 | 0.01 | 0.00 | 74 | 1007.2 | |
| 20260902061418 | 67 | 0.0 | 0.0 | 0.00 | 0.01 | 0.00 | 69 | 1007.4 | |
| 20260902060418 | 67 | 0.0 | 0.0 | 0.00 | 0.01 | 0.00 | 69 | 1007.4 | |
| 20260902055418 | 67 | 0.0 | 0.0 | 0.00 | 0.01 | 0.01 | 70 | 1007.4 | |
| 20260902054418 | 68 | 0.0 | 0.0 | 0.00 | 0.01 | 0.01 | 70 | 1007.3 | |
| 20260902053419 | 69 | 0 | 0.0 | 0.0 | 0.00 | 0.01 | 0.01 | 64 | 1007.5 |
| 20260902052419 | 70 | 106 | 0.0 | 2.0 | 0.00 | 0.01 | 0.01 | 63 | 1007.5 |
| 20260902051419 | 70 | 0.0 | 0.0 | 0.00 | 0.01 | 0.01 | 63 | 1007.4 | |
| 20260902050419 | 71 | 0.0 | 0.0 | 0.00 | 0.01 | 0.01 | 60 | 1007.4 | |
| 20260902045419 | 71 | 294 | 1.0 | 1.0 | 0.00 | 0.01 | 0.01 | 58 | 1007.3 |
| 20260902044419 | 71 | 0.0 | 0.0 | 0.00 | 0.01 | 0.01 | 60 | 1007.3 | |
| 20260902043419 | 72 | 0.0 | 0.0 | 0.00 | 0.01 | 0.01 | 60 | 1007.2 | |
| 20260902042440 | 72 | 0.0 | 0.0 | 0.00 | 0.01 | 0.01 | 59 | 1007.2 | |
| 20260902041420 | 73 | 0.0 | 0.0 | 0.00 | 0.01 | 0.01 | 59 | 1007.2 | |
| 20260902040420 | 73 | 0.0 | 0.0 | 0.00 | 0.01 | 0.01 | 58 | 1007.2 | |
| 20260902035420 | 74 | 0.0 | 0.0 | 0.00 | 0.01 | 0.01 | 58 | 1007.2 | |
| 20260902034441 | 75 | 0.0 | 0.0 | 0.00 | 0.01 | 0.01 | 57 | 1007.2 | |
| 20260902033501 | 75 | 0.0 | 0.0 | 0.00 | 0.01 | 0.01 | 55 | 1007.2 | |
| 20260902032421 | 76 | 0.0 | 0.0 | 0.00 | 0.01 | 0.01 | 53 | 1007.1 | |
| 20260902031421 | 77 | 0.0 | 0.0 | 0.00 | 0.01 | 0.01 | 52 | 1007.1 | |
| 20260902030421 | 77 | 0.0 | 0.0 | 0.00 | 0.01 | 0.01 | 52 | 1007.1 | |
| 20260902025421 | 78 | 0.0 | 0.0 | 0.00 | 0.01 | 0.01 | 50 | 1007.1 | |
| 20260902024602 | 78 | 0.0 | 0.0 | 0.00 | 0.01 | 0.01 | 50 | 1007.0 | |
| 20260902023421 | 79 | 0.0 | 0.0 | 0.00 | 0.01 | 0.01 | 49 | 1007.0 | |
| 20260902022442 | 80 | 0.0 | 0.0 | 0.00 | 0.01 | 0.01 | 47 | 1007.1 | |
| 20260902021422 | 80 | 0.0 | 0.0 | 0.00 | 0.01 | 0.01 | 47 | 1007.1 | |
| 20260902020442 | 81 | 0.0 | 0.0 | 0.00 | 0.01 | 0.01 | 47 | 1007.0 | |
| 20260902015443 | 82 | 0.0 | 0.0 | 0.00 | 0.01 | 0.01 | 47 | 1007.0 | |
| 20260902014423 | 82 | 0.0 | 0.0 | 0.00 | 0.01 | 0.01 | 47 | 1007.0 | |
| 20260902013423 | 82 | 0.0 | 0.0 | 0.00 | 0.01 | 0.01 | 47 | 1007.2 | |
| 20260902012423 | 83 | 0 | 0.0 | 0.0 | 0.00 | 0.01 | 0.01 | 47 | 1007.2 |
| 20260902011424 | 83 | 0 | 0.0 | 0.0 | 0.00 | 0.01 | 0.01 | 45 | 1007.2 |
| 20260902010423 | 84 | 303 | 1.0 | 1.0 | 0.00 | 0.01 | 0.01 | 44 | 1007.2 |
| 20260902005423 | 84 | 311 | 1.0 | 1.0 | 0.00 | 0.01 | 0.01 | 44 | 1007.2 |
| 20260902004424 | 84 | 296 | 1.0 | 2.0 | 0.00 | 0.01 | 0.01 | 43 | 1007.3 |
| 20260902003423 | 85 | 0.0 | 0.0 | 0.00 | 0.01 | 0.01 | 43 | 1007.2 | |
| 20260902002525 | 85 | 304 | 1.0 | 2.0 | 0.00 | 0.01 | 0.01 | 42 | 1007.1 |
| 20260902001424 | 86 | 301 | 1.0 | 2.0 | 0.00 | 0.01 | 0.01 | 42 | 1007.2 |
| 20260902000424 | 86 | 309 | 1.0 | 2.0 | 0.00 | 0.01 | 0.01 | 40 | 1007.2 |
| 20260901235424 | 86 | 273 | 2.0 | 3.0 | 0.00 | 0.01 | 0.01 | 42 | 1007.2 |
| 20260901234445 | 86 | 284 | 1.0 | 2.0 | 0.00 | 0.01 | 0.01 | 43 | 1007.2 |
| 20260901233425 | 86 | 301 | 1.0 | 2.0 | 0.00 | 0.01 | 0.01 | 44 | 1007.3 |
| 20260901232425 | 87 | 314 | 1.0 | 2.0 | 0.00 | 0.01 | 0.01 | 45 | 1007.4 |
| 20260901231425 | 86 | 270 | 1.0 | 1.0 | 0.00 | 0.01 | 0.01 | 44 | 1007.5 |
| 20260901230425 | 86 | 262 | 1.0 | 2.0 | 0.00 | 0.01 | 0.01 | 43 | 1007.8 |
| 20260901225425 | 87 | 290 | 1.0 | 3.0 | 0.00 | 0.01 | 0.01 | 42 | 1008.0 |
| 20260901224425 | 87 | 0.0 | 0.0 | 0.00 | 0.01 | 0.01 | 43 | 1008.1 | |
| 20260901223446 | 87 | 295 | 1.0 | 2.0 | 0.00 | 0.01 | 0.01 | 44 | 1008.2 |
| 20260901222426 | 86 | 0.0 | 0.0 | 0.00 | 0.01 | 0.01 | 45 | 1008.2 | |
| 20260901221426 | 86 | 0.0 | 0.0 | 0.00 | 0.01 | 0.01 | 45 | 1008.3 | |
| 20260901220426 | 86 | 292 | 1.0 | 2.0 | 0.00 | 0.01 | 0.01 | 47 | 1008.5 |
| 20260901215427 | 85 | 295 | 1.0 | 1.0 | 0.00 | 0.01 | 0.01 | 47 | 1008.7 |
| 20260901214427 | 85 | 266 | 1.0 | 2.0 | 0.00 | 0.01 | 0.01 | 45 | 1008.7 |
| 20260901213447 | 85 | 253 | 0.0 | 1.0 | 0.00 | 0.01 | 0.01 | 45 | 1009.0 |
| 20260901212427 | 85 | 0.0 | 0.0 | 0.00 | 0.01 | 0.01 | 48 | 1009.1 | |
| 20260901211427 | 84 | 0.0 | 0.0 | 0.00 | 0.01 | 0.01 | 49 | 1009.2 | |
| 20260901210427 | 84 | 0.0 | 0.0 | 0.00 | 0.01 | 0.01 | 48 | 1009.4 | |
| 20260901205427 | 83 | 0.0 | 0.0 | 0.00 | 0.01 | 0.01 | 49 | 1009.5 | |
| 20260901204447 | 83 | 0.0 | 0.0 | 0.00 | 0.01 | 0.01 | 49 | 1009.6 | |
| 20260901203428 | 82 | 285 | 1.0 | 1.0 | 0.00 | 0.01 | 0.01 | 47 | 1009.7 |
| 20260901202428 | 81 | 0.0 | 0.0 | 0.00 | 0.01 | 0.01 | 48 | 1009.8 | |
| 20260901201428 | 81 | 0.0 | 0.0 | 0.00 | 0.01 | 0.01 | 48 | 1010.0 | |
| 20260901200448 | 81 | 311 | 0.0 | 0.0 | 0.00 | 0.01 | 0.01 | 47 | 1010.0 |
| 20260901195449 | 80 | 267 | 1.0 | 2.0 | 0.00 | 0.01 | 0.01 | 47 | 1010.3 |
| 20260901194549 | 80 | 304 | 1.0 | 2.0 | 0.00 | 0.01 | 0.01 | 52 | 1010.3 |
| 20260901193449 | 80 | 0 | 0.0 | 0.0 | 0.00 | 0.01 | 0.01 | 54 | 1010.4 |
| 20260901192429 | 79 | 0.0 | 0.0 | 0.00 | 0.01 | 0.01 | 55 | 1010.6 | |
| 20260901191429 | 78 | 0.0 | 0.0 | 0.01 | 0.01 | 0.01 | 60 | 1010.9 | |
| 20260901190449 | 77 | 189 | 0.0 | 1.0 | 0.01 | 0.01 | 0.01 | 60 | 1011.1 |
| 20260901185429 | 77 | 269 | 1.0 | 2.0 | 0.01 | 0.01 | 0.01 | 62 | 1011.2 |
| 20260901184430 | 77 | 0 | 0.0 | 0.0 | 0.01 | 0.01 | 0.01 | 62 | 1011.2 |
| 20260901183430 | 77 | 276 | 2.0 | 3.0 | 0.01 | 0.01 | 0.01 | 62 | 1011.1 |
| 20260901182430 | 77 | 0 | 0.0 | 0.0 | 0.01 | 0.01 | 0.01 | 63 | 1011.0 |